Find Starlink 31546

NORAD ID: 59470 Int'l Des: 2024-068 Owner: SPXS Country: US Constellation: starlink operational
LEOCIRCULAR

リアルタイム位置

3D地球を読み込み中...

Starlink 31546について

説明を読み込み中...

次回通過

Passes for default location (London). Set your location on the main map for personalized predictions.

高度履歴

Loading altitude history...

軌道要素

1 59470U 24068R 26124.58940842 -.00000149 00000-0 41071-5 0 9993
2 59470 43.0045 75.2117 0000943 286.9346 73.1402 15.27581364117110
Epoch: May 4, 2026 • Age: 13 hours

現在のステータス

高度 486.8 km
速度 7.63 km/s
衛星直下点 43.04°N, 112.24°W
打ち上げ日 Apr 10, 2024
運用期間 2 years
タイプ internet

技術仕様

分類 Payload
質量 730.00 kg
乾燥質量 700.00 kg
総質量 730.00 kg
長さ 0.30 m
直径 4.10 m
スパン 29.00 m
形状 Box + pan
製造者 SPXS
バスタイプ Starlink V2M
フェーズステータス In Orbit
所有者/国 SPXS/US

Most Searched